Powrót do katalogu

BLITS DEB

AktywnySSO
NORAD 39119·DEBRIS·🇷🇺 Russia

Wystrzelony Sep 17, 2009 z Baikonur Cosmodrome

Loading…

Następne Przeloty (najbliższe 24 godziny)

TLE

ŚwieżeSource: Space-Track

Epoka: Sep 14, 2026, 08:15 UTC

1 39119U 09049J   26257.34402269  .00000040  00000-0  37833-4 0  9999
2 39119  98.7772 220.3086 0005144  58.9796 301.1886 14.22722476707305

Śledź BLITS DEB w czasie rzeczywistym z AllMySat

Download on the App Store